Content
SEND FEEDBACK

Daily
Averages
Monthly
Summary
Trinidad and Tobago

CUNUPIA, TRINIDAD AND TOBAGO


Home > Caribbean > Trinidad and Tobago
Elevation: 49 feet     Latitude: 10 37N     Longitude: 061 21W

WEATHER
 
SELECT A DAY
Number of Records: 173,834;   Date Range: 6/30/96 - 7/26/14
 
SHARE

PRINT THIS DATA

[ ← Previous Day ]
WEATHER ALMANAC - JANUARY 31, 2013
[ Next Day → ]
[ °C ]   °F
Weather ElementAverageHighLow
Temperature78.3 °F86 °F (1:00 pm)73 °F (5:00 am)
Dewpoint69.6 °F73.4 °F (10:00 am)66.2 °F (12:00 pm)
Humidity74.6 %95 % (5:00 am)44 % (2:00 pm)
Barometer29.94 in29.99 in (11:00 am)29.89 in (8:00 am)
Wind Speed10.5 mph23 mph (1:00 pm)
Wind Gust23 mph (8:26 am)
Weather ElementAverage
Visibility6.6 mi
Wind DirectionE (86.9 °)

Weather ElementTotal
Precipitation---
Cooling Degree Days14.5 (Base 65)
Growing Degree Days29.5 (Base 50)
Averaged from 32 records on January 31, 2013
WEATHER CONDITIONS BREAKOUT
WIND DIRECTION BREAKOUT
WEATHER BY HOUR - JANUARY 31, 2013
[ °C ]   °F
Local TimeTemperatureDewpointHumidityBarometerVisibilityWind DirectionWind SpeedGust SpeedPrecipitationEventsConditions
1:00 AM75.2 °F69.8 °F83 %29.95 in6.2 miEast (80°)11.5 mphMostly Cloudy
2:00 AM74.0 °F70.0 °F84 %29.94 in7.0 miESE (120°)9.2 mphRainLight Rain Showers
2:00 AM75.2 °F69.8 °F83 %29.92 in6.2 miESE (120°)9.2 mphRainLight Rain Showers
3:00 AM73.4 °F71.6 °F94 %29.92 in6.2 miEast (90°)11.5 mphRainLight Rain
4:00 AM73.4 °F71.6 °F94 %29.92 in6.2 miCalmMostly Cloudy
5:00 AM73.0 °F72.0 °F95 %29.94 in5.0 miENE (60°)3.5 mphRainLight Rain
5:00 AM73.4 °F71.6 °F94 %29.92 in5.0 miENE (60°)3.5 mphRainLight Rain
6:00 AM73.4 °F71.6 °F94 %29.95 in5.0 miSSE (150°)4.6 mphRainLight Rain
7:00 AM73.4 °F71.6 °F94 %29.95 in6.2 miCalmMostly Cloudy
8:00 AM75.0 °F72.0 °F86 %29.98 in5.0 miENE (60°)3.5 mphMostly Cloudy
8:00 AM75.2 °F71.6 °F89 %29.89 in5.0 miENE (60°)3.5 mphMostly Cloudy
8:26 AM75.2 °F71.6 °F89 %29.98 in1.2 miNE (50°)2.3 mph23.0 mphRainLight Rain Showers
9:00 AM75.2 °F71.6 °F89 %29.98 in6.2 miEast (90°)10.4 mphMostly Cloudy
10:00 AM80.6 °F73.4 °F79 %29.98 in6.2 miEast (100°)12.7 mphMostly Cloudy
11:00 AM84.0 °F69.0 °F51 %29.99 in14.0 miEast (100°)18.4 mphPartly Cloudy
11:00 AM84.2 °F68.0 °F58 %29.98 in6.2 miEast (100°)18.4 mphPartly Cloudy
12:00 PM84.2 °F66.2 °F55 %29.95 in6.2 miEast (90°)20.7 mphPartly Cloudy
1:00 PM86.0 °F66.2 °F51 %29.95 in6.2 miEast (100°)23.0 mphScattered Clouds
2:00 PM86.0 °F67.0 °F44 %29.93 in6.0 miESE (110°)18.4 mphMostly Cloudy
2:00 PM86.0 °F68.0 °F55 %29.92 in6.2 miESE (110°)18.4 mphScattered Clouds
3:00 PM84.2 °F68.0 °F58 %29.89 in6.2 miEast (100°)20.7 mphScattered Clouds
4:00 PM84.2 °F68.0 °F58 %29.89 in6.2 miESE (110°)18.4 mphPartly Cloudy
5:00 PM83.0 °F68.0 °F52 %11.0 miEast (80°)18.4 mphHaze
5:00 PM84.2 °F68.0 °F58 %29.89 in6.2 miEast (80°)18.4 mphPartly Cloudy
6:00 PM80.6 °F68.0 °F65 %29.89 in6.2 miEast (100°)11.5 mphPartly Cloudy
7:00 PM78.8 °F69.8 °F74 %29.89 in6.2 miEast (80°)6.9 mphPartly Cloudy
8:00 PM77.0 °F68.0 °F67 %29.93 in11.0 miEast (90°)6.9 mphHaze
8:00 PM77.0 °F68.0 °F74 %29.92 in6.2 miEast (90°)6.9 mphPartly Cloudy
9:00 PM75.2 °F68.0 °F78 %29.92 in6.2 miESE (110°)5.8 mphPartly Cloudy
10:00 PM75.2 °F69.8 °F83 %29.95 in6.2 miEast (90°)6.9 mphPartly Cloudy
11:00 PM75.0 °F69.0 °F77 %29.95 in12.0 miEast (100°)5.8 mphScattered Clouds
11:00 PM75.2 °F69.8 °F83 %29.95 in6.2 miEast (100°)5.8 mphPartly Cloudy
Hourly data recorded from TTPP, located miles away from Cunupia, Trinidad and Tobago







STORIES FROM OUR PARTNERS